Simultaneous Nadir Overpasses (SNOs) Predictions

Prediction of SNOs between AQUA and METOP-C Satellite Orbit:

Table of predicted SNOs for the next 14.0 days since TLE Epoch: 7/12/2019
Index Date (AQUA) Time (AQUA) Lat,Lon (AQUA) SZA (AQUA ) Date (METOP-C) Time (METOP-C) Lat,Lon (METOP-C) SZA (METOP-C ) Distance(km) Time Diff (sec)
1 07/13/2019 10:15:31 73.72, 20.60 51.94 07/13/2019 10:14:32 73.75, 20.56 51.98 3.31 59
2 07/13/2019 11:04:59 -73.82,-171.97 127.96 07/13/2019 11:05:12 -73.82,-171.95 127.96 0.62 13
3 07/13/2019 11:54:35 74.29, -5.41 52.56 07/13/2019 11:55:43 74.27, -3.49 52.46 57.60 68
4 07/16/2019 05:49:46 73.77, 86.94 52.42 07/16/2019 05:48:55 73.74, 86.95 52.41 3.05 51
5 07/16/2019 06:39:13 -73.81,-105.51 127.53 07/16/2019 06:39:35 -73.81,-105.56 127.53 1.59 22
6 07/19/2019 01:24:00 73.77, 153.37 52.91 07/19/2019 01:23:17 73.78, 153.46 52.93 3.08 43
7 07/19/2019 02:13:27 -73.81, -39.07 127.05 07/19/2019 02:13:58 -73.80, -39.18 127.06 3.52 31
8 07/21/2019 20:58:13 73.78,-140.20 53.44 07/21/2019 20:57:39 73.78,-140.15 53.45 1.53 34
9 07/21/2019 21:47:40 -73.81, 27.35 126.51 07/21/2019 21:48:19 -73.84, 27.32 126.49 2.79 39
10 07/24/2019 16:32:27 73.79, -73.79 54.03 07/24/2019 16:32:02 73.77, -73.76 54.01 2.48 25
11 07/24/2019 17:21:54 -73.83, 93.77 125.93 07/24/2019 17:22:42 -73.83, 93.71 125.93 1.79 48




NCC Satellite Simultaneous Nadir Overpasses (SNOs) Prediction Service
